Regional Weather Roundup
Issued by NWS Upton, NY

Home | Current Version | Previous Version | Text Only | Print | Product List | Glossary On
Versions: 1 2 3 4 5 6 7 8 9 10 11 12 13 14 15 16 17 18 19 20 21 22 23 24 25 26 27
000
ASUS41 KOKX 010304
RWROKX

REGIONAL WEATHER ROUNDUP
NATIONAL WEATHER SERVICE NEW YORK NY
1100 PM EDT WED AUG 31 2016

NOTE: "FAIR" INDICATES FEW OR NO CLOUDS BELOW 12,000 FEET WITH NO
SIGNIFICANT WEATHER AND/OR OBSTRUCTIONS TO VISIBILITY.

NYZ071-072-176-178-NJZ106-104-010400-
NEW YORK CITY METRO AREA

CITY           SKY/WX    TMP DP  RH WIND       PRES   REMARKS
Central Park   CLOUDY    79  66  64 SW9       29.91F
LaGuardia APRT CLOUDY    81  65  58 S13       29.87F
Kennedy INTL   LGT RAIN  78  73  84 S12       29.89F
Newark/Liberty LGT RAIN  79  66  64 S9        29.88S
Bronx Bot Gard   N/A     77  64  65 SE6       29.89S
Wall St Helipt CLOUDY    79  68  69 SW8       29.89F
Teterboro      CLOUDY    79  66  64 S8        29.87S
$$

NYZ177-179-078>081-010400-
LONG ISLAND NEW YORK

CITY           SKY/WX    TMP DP  RH WIND       PRES   REMARKS
Farmingdale    LGT RAIN  77  71  82 SW7       29.90S
MacArthur/ISP  LGT RAIN  77  70  79 SW6       29.89F
Shirley        CLOUDY    76  71  85 SW7       29.91S
Riverhead      NOT AVBL
Westhampton    CLOUDY    75  69  81 SW6       29.92S
Southampton      N/A     75  72  88 SW5       29.86F
Bridgehampton  NOT AVBL
East Hampton   FAIR      74  70  86 SW6       29.90F
Montauk          N/A     75  71  87 SW6       29.91F
$$

NYZ052-065-067-010400-
HUDSON VALLEY

CITY           SKY/WX    TMP DP  RH WIND       PRES   REMARKS
White Plains   MOCLDY    75  67  76 S3        29.89F
Newburgh       PTCLDY    72  68  88 S7        29.90F
Montgomery     CLOUDY    71  69  93 CALM      29.89S
Poughkeepsie   CLOUDY    70  68  93 CALM      29.87F
Albany         CLOUDY    72  66  81 CALM      29.88F
$$

NJZ001-105-106-008-010-013-015-019>022-104-010400-
NEW JERSEY

CITY           SKY/WX    TMP DP  RH WIND       PRES   REMARKS
Newark/Liberty LGT RAIN  79  66  64 S9        29.88S
Teterboro      CLOUDY    79  66  64 S8        29.87S
Caldwell       CLOUDY    80  67  64 CALM      29.88F
Morristown     CLOUDY    75  68  78 CALM      29.89S
Somerville     CLOUDY    76  69  79 SE3       29.87S
Linden         FAIR      79  65  62 CALM      29.90S
Sussex         CLOUDY    71  70  96 CALM      29.90S
Abdover          N/A     72  70  93 SW5       29.92R
Trenton        CLOUDY    76  67  73 SW8       29.89F
Millville      CLOUDY    76  72  87 SW5       29.91F
Atlantic City  CLOUDY    76  68  76 S5        29.90F
Wrightstown    LGT RAIN  72  69  90 S2        29.88F
Toms River     MOCLDY    75  67  76 S5        29.90F
Belmar         CLOUDY    75  68  78 S5        29.91F
$$

PAZ047>061-062-071-010400-
EASTERN PENNSYLVANIA

CITY           SKY/WX    TMP DP  RH WIND       PRES   REMARKS
Philadelphia   CLOUDY    75  69  81 S5        29.89F
Allentown      LGT RAIN  70  65  84 CALM      29.91R
Scranton       LGT RAIN  72  65  78 SW5       29.92F
$$

CTZ002-004>006-009-010-012-RIZ004-006-007-MAZ004-011-015-010400-
SOUTHERN NEW ENGLAND
 IN CT

CITY           SKY/WX    TMP DP  RH WIND       PRES   REMARKS
Bradley INTL   MOCLDY    74  67  78 SW5       29.89R
Hartford       MOCLDY    77  71  82 S6        29.88R
Danbury        PTCLDY    74  68  81 S9        29.91S
Wtrbury/Oxford   N/A     72  66  83 S3        29.92F
Bridgeport     CLOUDY    79  70  74 SW9       29.89S
Meriden        CLOUDY    76  70  82 S5        29.89S
New Haven      CLOUDY    77  71  82 S6        29.90S
Chester        FAIR      73  72  94 SW5       29.91S
Groton         CLOUDY    75  71  87 CALM      29.90S
Wilimantic     CLOUDY    74  72  93 SW3       29.90S

 IN RI

CITY           SKY/WX    TMP DP  RH WIND       PRES   REMARKS
Providence     CLOUDY    74  69  85 SW8       29.90F
Block Island   MOCLDY    75  70  84 SW9       29.91F
Westerly       CLOUDY    75  69  81 SW5       29.91S
 IN MA

CITY           SKY/WX    TMP DP  RH WIND       PRES   REMARKS
Boston         CLOUDY    76  69  79 SW12      29.86F
Worcester      CLOUDY    69  65  86 SW9       29.91S
Westfield      CLOUDY    70  66  87 S6        29.88S
Provincetown   CLOUDY    72  69  90 SW13      29.89S
Nantucket      CLOUDY    70  66  87 SW10      29.91F
$$

ANZ330-335-338-340-345-350-353-355-010400-
COASTAL MARINE OBSERVATIONS


STATION/POSITION TIME  SKY/WX   TEMP    WIND        PRES    VSBY  WAVE
                                AIR SEA DIR/SP/G                  HT/PER
                 (UTC)          (F)     (DEG/KT/KT) (MB)    (MI)  (FT/S)
NY HARB ENTRANCE 0150            78 78  200/ 16/ 17 1012.0          4/12
20S FIRE ISLAND  0150            78 76  210/ 16/ 17 1012.1          4/12
GREAT SOUTH BAY  0200            77 80  210/ 10/ 12   N/A
23 SSW MONTAUK P 0150            77 78  210/ 16/ 17 1013.2          4/12
15 E BARNEGAT LI 0200               78                N/A           3/11
HUDSON CANYON    0150            78 78              1013.0          3/10
KINGS POINT      0200            78 77              1011.9
EXECUTION ROCKS  0200            78     190/ 10/ 12   N/A
CENTRAL LI SOUND 0200            77 75  220/ 12/ 16   N/A           1/ 3
EASTERN LI SOUND 0200            73 70  210/  6/  8   N/A
ROBBINS REEF     0200            78                 1011.3
$$


>>>>>>>>>>>>>>>>>>>>>>>>>>>> KEY <<<<<<<<<<<<<<<<<<<<<<<<<<<
>                                                          <
>     SKY/WX - Sky Condition/Present Weather               <
>     TMP    - Temperature in Fahrenheit                   <
>     DP     - Dew Point in Fahrenheit                     <
>     RH     - Relative Humidity in Percent                <
>     WIND   - Direction (from) and Speed in MPH           <
>     PRES   - Mean Sea Level Pressure (inches of Hg)      <
>     WCI    - Wind Chill Index                            <
>     VSB    - VISIBILITY IN MILES                         <
>     HX     - HEAT INDEX                                  <
>     TC     - TEMPERATURE IN CELSIUS                      <
>     VRB    - VARIABLE WIND DIRECTION                     <
>                                                          <
>>>>>>>>>>>>>>>>>>>>>>>>>>>> KEY <<<<<<<<<<<<<<<<<<<<<<<<<<<




USA.gov is the U.S. government's official web portal to all federal, state and local government web resources and services.